Location: Kellogg
(38.0159°N, 90.0546°W)
Time: 13:24:10
(UTC+00:00)

ARIANE 6 FM1 Upper Stage - Pass Details

Date: 22 January 2026
Orbit: 522 x 609 km, 62.0° (Epoch: 8 February)

Event Time Altitude Azimuth Distance (km) Brightness Sun altitude
Rises 01:32:24 0° 239° (WSW) 2,715 7.1 -27.6°
Reaches altitude 10° 01:34:52 10° 251° (WSW) 1,809 6.1 -28.1°
Enters shadow 01:38:07 28° 304° (NW) 1,025 4.4 -28.7°
